カタログに戻る

STARLINK-32254

運用中通信VLEO
NORAD 60427·PAYLOAD·🇺🇸 United States

打ち上げ Aug 12, 2024 から Cape Canaveral Space Force Station

Loading…

次のパス (今後24時間)

TLE

最新Source: CelesTrak SupGP

元期: Sep 14, 2026, 22:51 UTC

1 60427C 24144C   26257.95256944  .00034657  00000+0  10242-2 0  2572
2 60427  53.1579  55.3003 0001186  81.7564 313.9447 15.34364667    11

AllMySatでSTARLINK-32254をリアルタイム追跡

Download on the App Store